STARLINK-35848, 66349

Orbit data source: Space-Track

STARLINK-35848, 66349 is a payload satellite owned by SpaceX/Seattle (US) in LEO that was launched on Thu, 06 Nov 2025 UTC via an FALCON 9 launch vehicle from the Air Force Western Test Range (AFWTR). Payload-class satellites include a variety of spacecraft equipped with specific instruments for various scientific and technological missions. These include communications satellites like Starlink; space stations such as the ISS; scientific satellites like the Hubble; Earth observation satellites from companies like Planet Labs, Umbra, and HawkEye 360; GPS; miniature CubeSats for education and research; and military/defense satellites.

Loading next visibility...
Identifier
66349, 2025-254B
Orbit
LEO
Country
Flag of USUS
Related business
Manufacturer
SpaceX/Seattle
Mission
Operational Commercial Communications
Bus & Motor
STARLINK V2MO, Unknown motor
Mass
575 kg wet, ~530 kg dry
Launch date (UTC)
2025-11-06 (7 months ago)
Launch vehicle
FALCON 9
Launch site
Air Force Western Test Range (AFWTR)
Object type
Payload
Rocket body
Debris
Shape & HBR
Box + 2 Pan, 17.7 m
Radar Cross Section
36.964 m², Large (>1 m²)

Expand to show TLE details & history
Last TLE update: 23 hours ago

TLE from 23 hours ago
0 STARLINK-35848
1 66349U 25254B   26170.87732456  .00032394  00000-0  10508-2 0  9991
2 66349  53.1599 117.6272 0001484 110.1488 249.9674 15.31711086 34627
Epoch: 2026-06-19T21:03Z
TLE epoch observation values (Epoch: 2026-06-19T21:03:20.841Z)
Latitude
0.00007°
Longitude
-106.30959°
Altitude
471.956 km
Speed
7.631 km/s
True Right ascension
07h 50m 30s
True Declination
0° 00' 00"
Sunlit
Object was in daylight at epoch
Visualization orbit readout
Latitude
Unknown
Longitude
Unknown
Altitude
Unknown
Speed
Unknown
Apparent Right ascension
Unknown
Apparent Declination
Unknown
Sunlit
N/A
Visualization observer readout
Local Sidereal Time
07:16:51
Azimuth
Unknown
Elevation
Unknown
Doppler factor
Unknown
Orbital elements
Apogee altitude
471.98 km
Perigee altitude
469.947 km
Semi-major axis
6,849.101 km
Eccentricity
0.00015
Inclination
53.1599°
RAAN
117.6272°
Arg. of periapsis
110.1488°
True anomaly
249.95142°
Mean anomaly
249.9674°
Eccentric anomaly
249.95941°
Mean motion
3.82907 °/min
Orbital period
94.02 mins
BSTAR
0.0010508
Loading maneuver chart data...
Computing Atmospheric mass density...
Loading historical data...
Loading historical data...
Loading historical data...
Loading historical data...
Loading historical data...
Loading historical data...
Loading historical data...

Documentation

Showing up to 5 results
|